Tracking 32139 objects as of 15-Nov-2025
HD Live streaming from Space Station
objects crossing your sky now

STARLINK-35301

Track STARLINK-35301 now!
10-day predictions
STARLINK-35301 is classified as:


NORAD ID: 65843
Int'l Code: 2025-221W
Perigee: 481.1 km
Apogee: 483.3 km
Inclination: 53.2 °
Period: 94.1 minutes
Semi major axis: 6853 km
RCS: Unknown
Launch date: September 29, 2025
Source: United States (US)
Launch site: AIR FORCE WESTERN TEST RANGE (AFWTR)
Your satellite tracking list
Your tracking list is empty




NASA's NSSDC Master Catalog

Two Line Element Set (TLE):
1 65843U 25221W   25318.86156193  .00040067  00000-0  13556-2 0  9995
2 65843  53.1594 261.6378 0001633  99.2934 260.8252 15.30247029  7158
Source of the keplerian elements: AFSPC